Weather History for KSLR - July, 2013

Change the Weather History Date:

Thursday, July 18, 2013

  Actual Average (KGVT) Record (KGVT)
Temperature  
Mean Temperature 84 °F -  
Max Temperature 93 °F 93 °F 104 °F (2006)
Min Temperature 74 °F 75 °F 62 °F (2014)
Cooling Degree Days 18    
Growing Degree Days 34 (Base 50)    
Moisture  
Dew Point 69 °F    
Average Humidity 64    
Maximum Humidity 91    
Minimum Humidity 37    
Precipitation  
Precipitation 0.00 in - - ()
Sea Level Pressure  
Sea Level Pressure 30.14 in    
Wind  
Wind Speed 2 mph (North)    
Max Wind Speed 13 mph    
Max Gust Speed 23 mph    
Visibility 10 miles    
Events Thunderstorm    
Averages and records for this station are not official NWS values.
T = Trace of Precipitation, MM = Missing Value Source: NWS Daily Summary

Daily Weather History Graph

Daily Weather History Graph

Search for Another Location

Airport or City:

Trip Planner

Search our weather history database for the weather conditions in past years. The results will help you decide how hot, cold, wet, or windy it might be!

Date:

Astronomy

Jul. 18, 2013 Rise Set
Actual Time 6:26 AM CDT 8:30 PM CDT
Civil Twilight 5:58 AM CDT 8:58 PM CDT
Nautical Twilight 5:24 AM CDT 9:32 PM CDT
Astronomical Twilight 4:47 AM CDT 10:08 PM CDT
Moon 4:30 PM CDT (7/18) 2:14 AM CDT (7/18)
Length of Visible Light 15h 00m
Length of Day
14h 04m
Waxing Gibbous, 77% of the Moon is Illuminated
Jul 18
Waxing Gibbous
Jul 22
Full
Jul 29
Last Quarter
Aug 6
New
Aug 14
First Quarter

Hourly Weather History & Observations

Time (CDT) Temp. Heat Index Dew Point Humidity Pressure Visibility Wind Dir Wind Speed Gust Speed Precip Events Conditions
12:15 AM 76.3 °F - 73.4 °F 91% 30.20 in 10.0 mi Calm Calm - N/A   Clear
12:35 AM 76.1 °F - 73.2 °F 91% 30.21 in 10.0 mi Calm Calm - N/A   Clear
12:55 AM 76.3 °F - 72.9 °F 89% 30.20 in 10.0 mi Calm Calm - N/A   Clear
1:15 AM 75.6 °F - 72.9 °F 91% 30.20 in 10.0 mi WSW 3.5 mph - N/A   Clear
1:35 AM 75.7 °F - 72.7 °F 90% 30.20 in 10.0 mi Calm Calm - N/A   Clear
1:55 AM 75.6 °F - 72.9 °F 91% 30.19 in 10.0 mi Calm Calm - N/A   Clear
2:15 AM 75.7 °F - 72.9 °F 91% 30.20 in 10.0 mi Calm Calm - N/A   Clear
2:35 AM 75.6 °F - 72.7 °F 91% 30.19 in 7.0 mi Calm Calm - N/A   Clear
2:55 AM 74.8 °F - 72.1 °F 91% 30.19 in 10.0 mi Calm Calm - N/A   Clear
3:15 AM 75.2 °F - 72.0 °F 90% 30.19 in 10.0 mi Calm Calm - N/A   Clear
3:35 AM 75.2 °F - 71.6 °F 89% 30.19 in 10.0 mi Calm Calm - N/A   Clear
3:55 AM 74.8 °F - 71.1 °F 88% 30.19 in 10.0 mi Calm Calm - N/A   Clear
4:15 AM 74.5 °F - 70.9 °F 88% 30.18 in 10.0 mi Calm Calm - N/A   Clear
4:35 AM 75.4 °F - 70.9 °F 86% 30.18 in 10.0 mi Calm Calm - N/A   Clear
4:55 AM 75.2 °F - 70.7 °F 86% 30.18 in 10.0 mi Calm Calm - N/A   Clear
5:15 AM 76.1 °F - 70.3 °F 82% 30.18 in 10.0 mi Calm Calm - N/A   Clear
5:35 AM 75.7 °F - 69.6 °F 81% 30.18 in 10.0 mi Calm Calm - N/A   Clear
5:55 AM 75.9 °F - 70.2 °F 82% 30.18 in 10.0 mi Calm Calm - N/A   Clear
6:15 AM 75.4 °F - 70.2 °F 84% 30.19 in 10.0 mi Calm Calm - N/A   Clear
6:35 AM 75.7 °F - 70.2 °F 83% 30.19 in 10.0 mi Calm Calm - N/A   Clear
6:55 AM 74.1 °F - 69.6 °F 86% 30.19 in 10.0 mi Calm Calm - N/A   Clear
7:15 AM 75.7 °F - 71.1 °F 85% 30.20 in 10.0 mi Calm Calm - N/A   Clear
7:35 AM 76.1 °F - 71.6 °F 86% 30.20 in 10.0 mi Calm Calm - N/A   Clear
7:55 AM 77.0 °F - 71.2 °F 82% 30.20 in 10.0 mi Calm Calm - N/A   Clear
8:15 AM 78.3 °F - 71.2 °F 79% 30.20 in 10.0 mi NNW 3.5 mph - N/A   Clear
8:35 AM 79.9 °F - 70.7 °F 73% 30.21 in 10.0 mi NNW 4.6 mph - N/A   Clear
8:55 AM 81.0 °F 84.7 °F 70.7 °F 71% 30.21 in 10.0 mi NNW 4.6 mph - N/A   Clear
9:15 AM 82.2 °F 86.0 °F 70.0 °F 66% 30.21 in 10.0 mi North 9.2 mph - N/A   Clear
9:35 AM 82.8 °F 86.9 °F 70.2 °F 66% 30.21 in 10.0 mi North 5.8 mph - N/A   Clear
9:55 AM 84.0 °F 88.4 °F 70.3 °F 63% 30.21 in 10.0 mi NNW 5.8 mph - N/A   Clear
10:15 AM 85.1 °F 89.4 °F 70.0 °F 60% 30.20 in 10.0 mi North 8.1 mph - N/A   Clear
10:35 AM 86.0 °F 90.1 °F 69.3 °F 57% 30.21 in 10.0 mi North 6.9 mph - N/A   Clear
10:55 AM 86.4 °F 91.1 °F 70.0 °F 58% 30.21 in 10.0 mi NNE 4.6 mph - N/A   Clear
11:15 AM 87.1 °F 91.6 °F 69.8 °F 56% 30.21 in 10.0 mi Calm Calm - N/A   Clear
11:35 AM 87.8 °F 93.0 °F 70.5 °F 56% 30.20 in 10.0 mi WNW 3.5 mph - N/A   Clear
11:55 AM 88.2 °F 92.5 °F 69.3 °F 53% 30.19 in 10.0 mi NNW 3.5 mph - N/A   Scattered Clouds
12:15 PM 89.8 °F 93.8 °F 68.5 °F 49% 30.19 in 10.0 mi Calm Calm - N/A   Scattered Clouds
12:35 PM 89.4 °F 91.2 °F 65.1 °F 44% 30.18 in 10.0 mi Calm Calm - N/A   Scattered Clouds
12:55 PM 90.9 °F 93.5 °F 66.2 °F 44% 30.18 in 10.0 mi Calm Calm - N/A   Clear
1:15 PM 90.1 °F 93.5 °F 67.3 °F 47% 30.17 in 10.0 mi NNW 3.5 mph - N/A   Scattered Clouds
1:35 PM 89.1 °F 92.1 °F 67.3 °F 48% 30.16 in 10.0 mi NW 3.5 mph - N/A   Mostly Cloudy
1:55 PM 90.3 °F 93.0 °F 66.4 °F 45% 30.15 in 10.0 mi WNW 5.8 mph - N/A   Scattered Clouds
2:15 PM 91.4 °F 94.0 °F 65.8 °F 43% 30.14 in 10.0 mi NW 4.6 mph - N/A   Scattered Clouds
2:35 PM 91.4 °F 93.6 °F 65.1 °F 42% 30.13 in 10.0 mi NNW 3.5 mph - N/A   Scattered Clouds
2:55 PM 90.7 °F 93.2 °F 65.8 °F 44% 30.11 in 10.0 mi Calm Calm - N/A   Clear
3:15 PM 92.3 °F 94.3 °F 64.8 °F 40% 30.10 in 10.0 mi Calm Calm - N/A   Clear
3:35 PM 92.7 °F 94.9 °F 65.3 °F 40% 30.09 in 10.0 mi WNW 3.5 mph - N/A   Clear
3:55 PM 92.7 °F 95.3 °F 65.5 °F 41% 30.08 in 10.0 mi NW 3.5 mph - N/A   Clear
4:15 PM 93.2 °F 95.3 °F 64.8 °F 39% 30.07 in 10.0 mi North 3.5 mph - N/A   Clear
5:15 PM 93.6 °F 95.0 °F 63.9 °F 37% 30.05 in 10.0 mi Calm Calm - N/A   Clear
5:35 PM 93.4 °F 95.2 °F 64.4 °F 38% 30.05 in 10.0 mi Calm Calm - N/A   Clear
5:55 PM 93.4 °F 94.7 °F 63.3 °F 37% 30.04 in 10.0 mi West 3.5 mph - N/A   Clear
6:15 PM 93.4 °F 95.2 °F 64.6 °F 38% 30.04 in 10.0 mi Calm Calm - N/A   Clear
6:35 PM 93.2 °F 95.3 °F 64.9 °F 39% 30.04 in 10.0 mi Calm Calm - N/A   Clear
6:55 PM 92.8 °F 95.2 °F 65.1 °F 40% 30.03 in 10.0 mi Calm Calm - N/A   Clear
7:15 PM 92.5 °F 94.6 °F 64.9 °F 40% 30.04 in 10.0 mi Calm Calm - N/A   Clear
7:35 PM 92.7 °F 94.0 °F 63.7 °F 38% 30.04 in 10.0 mi Calm Calm - N/A   Clear
7:55 PM 91.9 °F 95.0 °F 66.7 °F 43% 30.04 in 10.0 mi Calm Calm - N/A   Clear
8:15 PM 90.3 °F 93.9 °F 67.8 °F 47% 30.04 in 10.0 mi Calm Calm - N/A   Clear
8:35 PM 89.2 °F 93.2 °F 68.4 °F 50% 30.05 in 10.0 mi NE 3.5 mph - N/A   Clear
8:55 PM 87.8 °F 91.8 °F 68.5 °F 53% 30.05 in 10.0 mi NE 3.5 mph - N/A   Clear
9:15 PM 86.9 °F 91.3 °F 69.6 °F 56% 30.05 in 10.0 mi Calm Calm - N/A   Clear
9:35 PM 84.7 °F 89.1 °F 70.2 °F 61% 30.06 in 10.0 mi Calm Calm - N/A   Clear
9:55 PM 84.7 °F 90.0 °F 71.2 °F 64% 30.06 in 10.0 mi ESE 6.9 mph - N/A   Clear
10:15 PM 85.1 °F 89.4 °F 69.6 °F 60% 30.07 in 10.0 mi SE 4.6 mph - N/A   Clear
10:35 PM 84.2 °F 87.6 °F 68.5 °F 59% 30.07 in 10.0 mi SSE 5.8 mph - N/A   Clear
10:55 PM 83.8 °F 87.5 °F 69.1 °F 61% 30.09 in 10.0 mi East 9.2 mph - N/A   Scattered Clouds
11:15 PM 82.9 °F 85.8 °F 67.8 °F 60% 30.09 in 10.0 mi East 12.7 mph 23.0 mph N/A   Mostly Cloudy
11:35 PM 81.7 °F 84.0 °F 66.6 °F 60% 30.09 in 10.0 mi East 12.7 mph - N/A Thunderstorm Scattered Clouds
11:55 PM 81.0 °F 83.3 °F 66.9 °F 62% 30.09 in 10.0 mi SSE 10.4 mph - N/A Thunderstorm Thunderstorm